COSMOS 2187

导读

COSMOS 2187是独联体(CIS)于1992年6月3日发射的卫星,隶属于苏联/俄罗斯传统“宇宙”(COSMOS)卫星系列。“宇宙”系列多包含军事侦察、技术试验类任务,该卫星延续了前苏联航天发展脉络,是独联体成立初期航天活动的组成部分,后续完成既定任务后已脱离轨道陨落,见证了后苏联时代航天传承与发展。

Basic Information
目录编号:
21976
目录名称:
COSMOS 2187
国际标识:
1992-030A
轨道中心:
EARTH
卫星名称:
COSMOS 2187
卫星全名:
--
卫星状态:
在轨 (已飞行12432 天)
发射日期:
1992-06-03 UTC
国别 :
俄罗斯(独联体) (CIS)
星等 :
--
Orbit Information
数据来源 国际轨道数据
星历时间: 2026-06-17T12:53:04+0800
8小时前
查看轨道信息
半长轴: 7818.728km
偏心率: 0.0050397
轨道倾角: 74.003°
近地点辐角 340.413°
升交点赤经 109.468°
平近点角 85.196°
近地点: 1401.186km
远地点: 1479.996km
周期: 114.674分钟
每日圈数: 12.557368
Detailed Information
使用方式:
暂无
2D Orbit Map
3D Orbit Map
Orbit Altitude Analysis Chart
Orbit Inclination Analysis Chart
Orbit Comprehensive Analysis Chart
View Comprehensive Chart